Location: ????????
(37.9452°N, 23.1472°E)
Time: 20:05:42
(UTC+00:00)

Cosmos 1503 Rocket - Pass Details

Date: 18 April 2024
Orbit: 750 x 789 km, 74.0° (Epoch: 26 May)

Event Time Altitude Azimuth Distance (km) Brightness Sun altitude
Rises 18:54:19 0° 343° (NNW) 3,291 8.1 -20.2°
Reaches altitude 10° 18:56:43 10° 344° (NNW) 2,358 7.2 -20.6°
Maximum altitude 19:02:06 79° 71° (ENE) 807 3.9 -21.5°
Enters shadow 19:03:42 46° 149° (SSE) 1,044 4.2 -21.7°
